This demonstration page uses our WeatherBlox Daily Observations layout. Learn more.

Left ArrowRight Arrow

34.74481, -87.66753

Hourly Observations for April 30, 2015

Temp ( °F °C ) Dew Point ( °F °C ) Humidity (%) Winds ( mph kmh ) Pressure ( in mb ) Visibility ( mi km ) Precip ( " mm )
12:53 am 00:53 Clear 54 12.2 45 7.2 72 72 Calm 29.84 1011 10 16 0.00 0.00
1:53 am 01:53 Clear 52 11.1 45 7.2 77 77 Calm 29.83 1010 10 16 0.00 0.00
2:53 am 02:53 Clear 49 9.4 44 6.7 83 83 Calm 29.83 1010 10 16 0.00 0.00
3:53 am 03:53 Clear 49 9.4 45 7.2 86 86 Calm 29.82 1010 10 16 0.00 0.00
4:53 am 04:53 Clear 47 8.3 43 6.1 86 86 Calm 29.83 1010 10 16 0.00 0.00
5:53 am 05:53 Clear 46 7.8 43 6.1 89 89 W 3 6 29.85 1011 9 14 0.00 0.00
6:53 am 06:53 Sunny 50 10 47 8.3 89 89 WNW 5 7 29.87 1011 9 14 0.00 0.00
7:53 am 07:53 Sunny 56 13.3 49 9.4 77 77 WNW 5 7 29.88 1012 10 16 0.00 0.00
8:53 am 08:53 Sunny 63 17.2 48 8.9 58 58 WNW 8 13 29.89 1012 10 16 0.00 0.00
9:53 am 09:53 Sunny 67 19.4 48 8.9 51 51 NW 9 15 29.89 1012 10 16 0.00 0.00
10:53 am 10:53 Sunny 70 21.1 46 7.8 42 42 WNW 13 20 29.88 1012 10 16 0.00 0.00
11:53 am 11:53 Sunny 72 22.2 44 6.7 37 37 NW 13 20 29.87 1012 10 16 0.00 0.00
12:53 pm 12:53 Sunny 74 23.3 44 6.7 34 34 VRB 6 9 29.85 1011 10 16 0.00 0.00
1:53 pm 13:53 Mostly Sunny 71 21.7 42 5.6 35 35 NW 14 22 29.84 1011 10 16 0.00 0.00
2:53 pm 14:53 Partly Cloudy 74 23.3 45 7.2 36 36 NW 10 17 29.82 1010 10 16 0.00 0.00
3:53 pm 15:53 Mostly Sunny 74 23.3 44 6.7 34 34 WNW 14 22 29.81 1010 10 16 0.00 0.00
4:53 pm 16:53 Mostly Sunny 75 23.9 44 6.7 33 33 WNW 16 26 29.81 1010 10 16 0.00 0.00
5:53 pm 17:53 Mostly Sunny 73 22.8 45 7.2 37 37 WNW 12 19 29.82 1010 10 16 0.00 0.00
6:53 pm 18:53 Mostly Cloudy 71 21.7 42 5.6 35 35 NW 12 19 29.84 1010 10 16 0.00 0.00
7:53 pm 19:53 Partly Cloudy 68 20 43 6.1 40 40 VRB 5 7 29.87 1012 10 16 0.00 0.00
8:53 pm 20:53 Mostly Cloudy 63 17.2 48 8.9 58 58 NE 8 13 29.91 1013 10 16 0.00 0.00
9:53 pm 21:53 Mostly Clear 60 15.6 46 7.8 60 60 ENE 6 9 29.95 1014 10 16 0.00 0.00
10:53 pm 22:53 Clear 56 13.3 47 8.3 72 72 Calm 29.97 1015 10 16 0.00 0.00
11:53 pm 23:53 Clear 52 11.1 46 7.8 80 80 Calm 29.98 1015 10 16 0.00 0.00

Powered by AerisWeather